SDM6242 UWKD-UUEE

Flight info

Callsign SDM6242
Flight time 1h 18m
Altitude 36000
Route N0460F360 APTAR L158 DIMGI
Aircraft A319/M-VGDW/C

Departure

Time 2026-05-07 17:49
Airport Kazan International Airport (UWKD)

Arrival

Time 2026-05-07 19:08
Airport Sheremetyevo International Airport (UUEE)
Time Latitude Longitude Altitude Speed Heading
2026-05-07 17:05 55.60675 49.30080 409 ft 0 kts 34°
2026-05-07 17:33 55.60672 49.30076 413 ft 3 kts 34°
2026-05-07 17:33 55.60656 49.30057 413 ft 3 kts 34°
2026-05-07 17:34 55.60641 49.30037 416 ft 3 kts 28°
2026-05-07 17:34 55.60624 49.30025 405 ft 3 kts
2026-05-07 17:34 55.60605 49.30024 410 ft 3 kts
2026-05-07 17:34 55.60588 49.30022 407 ft 2 kts 27°
2026-05-07 17:35 55.60573 49.30007 416 ft 3 kts 32°
2026-05-07 17:35 55.60558 49.29990 411 ft 3 kts 38°
2026-05-07 17:35 55.60555 49.29985 410 ft 0 kts 38°
2026-05-07 17:35 55.60556 49.29986 410 ft 0 kts 38°
2026-05-07 17:36 55.60560 49.29992 416 ft 1 kts 38°
2026-05-07 17:38 55.60565 49.30000 416 ft 4 kts 37°
2026-05-07 17:38 55.60605 49.30007 408 ft 6 kts 333°
2026-05-07 17:38 55.60633 49.29944 416 ft 7 kts 307°
2026-05-07 17:38 55.60661 49.29873 416 ft 7 kts 303°
2026-05-07 17:39 55.60689 49.29796 411 ft 8 kts 304°
2026-05-07 17:39 55.60720 49.29716 411 ft 8 kts 304°
2026-05-07 17:39 55.60753 49.29631 412 ft 9 kts 304°
2026-05-07 17:39 55.60795 49.29524 408 ft 13 kts 304°
2026-05-07 17:40 55.60811 49.29427 416 ft 7 kts 245°
2026-05-07 17:40 55.60759 49.29361 416 ft 14 kts 215°
2026-05-07 17:40 55.60660 49.29241 413 ft 14 kts 214°
2026-05-07 17:40 55.60603 49.29161 416 ft 11 kts 230°
2026-05-07 17:41 55.60576 49.29037 416 ft 12 kts 270°
2026-05-07 17:41 55.60581 49.28890 416 ft 12 kts 274°
2026-05-07 17:41 55.60588 49.28740 413 ft 12 kts 274°
2026-05-07 17:41 55.60604 49.28589 412 ft 13 kts 296°
2026-05-07 17:42 55.60654 49.28456 412 ft 13 kts 304°
2026-05-07 17:42 55.60706 49.28322 416 ft 13 kts 304°
2026-05-07 17:42 55.60759 49.28185 415 ft 14 kts 304°
2026-05-07 17:42 55.60813 49.28045 413 ft 14 kts 304°
2026-05-07 17:43 55.60868 49.27904 410 ft 14 kts 304°
2026-05-07 17:43 55.60925 49.27757 413 ft 15 kts 304°
2026-05-07 17:43 55.60984 49.27605 414 ft 15 kts 304°
2026-05-07 17:43 55.61043 49.27451 412 ft 15 kts 304°
2026-05-07 17:44 55.61105 49.27294 416 ft 16 kts 304°
2026-05-07 17:44 55.61166 49.27134 412 ft 16 kts 304°
2026-05-07 17:44 55.61209 49.27023 410 ft 6 kts 304°
2026-05-07 17:44 55.61221 49.26951 416 ft 2 kts 257°
2026-05-07 17:45 55.61211 49.26922 416 ft 3 kts 231°
2026-05-07 17:45 55.61204 49.26911 414 ft 0 kts 220°
2026-05-07 17:45 55.61202 49.26908 414 ft 2 kts 216°
2026-05-07 17:46 55.61171 49.26870 416 ft 3 kts 213°
2026-05-07 17:46 55.61169 49.26868 416 ft 0 kts 213°
2026-05-07 17:47 55.61146 49.26841 418 ft 6 kts 214°
2026-05-07 17:47 55.61103 49.26787 418 ft 10 kts 215°
2026-05-07 17:48 55.61047 49.26787 411 ft 9 kts 132°
2026-05-07 17:48 55.61039 49.26809 413 ft 0 kts 124°
2026-05-07 17:48 55.61036 49.26816 414 ft 3 kts 124°
2026-05-07 17:48 55.60905 49.27161 413 ft 73 kts 124°
2026-05-07 17:49 55.60490 49.28236 418 ft 137 kts 124°
2026-05-07 17:49 55.59933 49.29696 872 ft 143 kts 123°
2026-05-07 17:49 55.59366 49.31132 1439 ft 143 kts 123°
2026-05-07 17:49 55.58794 49.32609 2013 ft 148 kts 123°
2026-05-07 17:50 55.58178 49.34204 2377 ft 168 kts 124°
2026-05-07 17:50 55.57477 49.36005 2742 ft 187 kts 123°
2026-05-07 17:50 55.56697 49.38001 3067 ft 209 kts 123°
2026-05-07 17:50 55.55836 49.40212 3462 ft 228 kts 123°
2026-05-07 17:51 55.54782 49.42337 4025 ft 246 kts 144°
2026-05-07 17:51 55.53082 49.43223 4464 ft 271 kts 182°
2026-05-07 17:51 55.51287 49.42130 5170 ft 281 kts 216°
2026-05-07 17:51 55.49698 49.40083 6089 ft 284 kts 216°
2026-05-07 17:52 55.48044 49.38139 7015 ft 287 kts 214°
2026-05-07 17:52 55.46343 49.36236 7681 ft 292 kts 213°
2026-05-07 17:52 55.44623 49.34329 7906 ft 292 kts 213°
2026-05-07 17:52 55.42952 49.32388 7973 ft 291 kts 220°
2026-05-07 17:53 55.41604 49.29780 7977 ft 288 kts 240°
2026-05-07 17:53 55.40821 49.26580 7982 ft 284 kts 258°
2026-05-07 17:53 55.40643 49.23226 7977 ft 266 kts 276°
2026-05-07 17:53 55.40857 49.20100 7977 ft 251 kts 279°
2026-05-07 17:54 55.41070 49.17073 7978 ft 248 kts 279°
2026-05-07 17:54 55.41276 49.14059 7979 ft 248 kts 279°
2026-05-07 17:54 55.41477 49.11050 7980 ft 248 kts 279°
2026-05-07 17:54 55.41678 49.08038 7980 ft 248 kts 279°
2026-05-07 17:55 55.41880 49.05023 7982 ft 248 kts 279°
2026-05-07 17:55 55.42081 49.02012 7983 ft 248 kts 279°
2026-05-07 17:55 55.42281 48.99036 8016 ft 250 kts 279°
2026-05-07 17:55 55.42484 48.95996 8833 ft 249 kts 279°
2026-05-07 17:56 55.42685 48.92960 9791 ft 250 kts 279°
2026-05-07 17:56 55.42888 48.89897 10613 ft 253 kts 279°
2026-05-07 17:56 55.43092 48.86812 11425 ft 255 kts 278°
2026-05-07 17:56 55.43300 48.83694 12215 ft 258 kts 278°
2026-05-07 17:57 55.43507 48.80541 13013 ft 261 kts 278°
2026-05-07 17:57 55.43645 48.78428 13461 ft 268 kts 278°
2026-05-07 17:57 55.43948 48.73819 13799 ft 299 kts 277°
2026-05-07 17:57 55.44194 48.70040 13997 ft 322 kts 277°
2026-05-07 17:58 55.44455 48.65984 14195 ft 343 kts 277°
2026-05-07 17:58 55.44719 48.61809 14707 ft 351 kts 277°
2026-05-07 17:58 55.44990 48.57519 15362 ft 355 kts 277°
2026-05-07 17:58 55.45351 48.53200 16028 ft 358 kts 283°
2026-05-07 17:59 55.46049 48.48976 16701 ft 361 kts 287°
2026-05-07 17:59 55.46793 48.44734 17378 ft 364 kts 287°
2026-05-07 17:59 55.47542 48.40453 17855 ft 367 kts 287°
2026-05-07 17:59 55.48291 48.36153 17969 ft 367 kts 287°
2026-05-07 18:00 55.49033 48.31856 18086 ft 365 kts 287°
2026-05-07 18:00 55.49771 48.27563 18349 ft 366 kts 287°
2026-05-07 18:00 55.50510 48.23259 18586 ft 367 kts 287°
2026-05-07 18:00 55.51252 48.18937 18822 ft 369 kts 287°
2026-05-07 18:01 55.51997 48.14599 18949 ft 370 kts 287°
2026-05-07 18:01 55.52732 48.10310 18987 ft 370 kts 287°
2026-05-07 18:01 55.53475 48.05957 18988 ft 370 kts 287°
2026-05-07 18:01 55.54218 48.01613 18989 ft 370 kts 287°
2026-05-07 18:02 55.55703 47.92906 18986 ft 370 kts 287°
2026-05-07 18:02 55.56443 47.88560 18986 ft 370 kts 286°
2026-05-07 18:02 55.57178 47.84205 18982 ft 370 kts 286°
2026-05-07 18:03 55.57912 47.79833 18983 ft 372 kts 286°
2026-05-07 18:03 55.58646 47.75445 18986 ft 372 kts 286°
2026-05-07 18:03 55.59388 47.71023 19459 ft 376 kts 286°
2026-05-07 18:03 55.60131 47.66589 20118 ft 377 kts 286°
2026-05-07 18:04 55.60877 47.62120 20721 ft 380 kts 286°
2026-05-07 18:04 55.61616 47.57677 21309 ft 383 kts 286°
2026-05-07 18:04 55.62367 47.53140 21888 ft 386 kts 286°
2026-05-07 18:04 55.63121 47.48567 22446 ft 389 kts 286°
2026-05-07 18:05 55.63880 47.43956 22985 ft 392 kts 286°
2026-05-07 18:05 55.64645 47.39312 23512 ft 395 kts 286°
2026-05-07 18:05 55.65417 47.34626 23952 ft 398 kts 286°
2026-05-07 18:05 55.66191 47.29913 24385 ft 400 kts 286°
2026-05-07 18:06 55.66965 47.25165 24810 ft 403 kts 286°
2026-05-07 18:06 55.67743 47.20378 25232 ft 405 kts 286°
2026-05-07 18:06 55.68523 47.15571 25641 ft 408 kts 286°
2026-05-07 18:06 55.69307 47.10724 26064 ft 410 kts 285°
2026-05-07 18:07 55.70092 47.05863 26524 ft 411 kts 285°
2026-05-07 18:07 55.70878 47.00978 26953 ft 413 kts 285°
2026-05-07 18:07 55.71666 46.96063 27364 ft 416 kts 285°
2026-05-07 18:07 55.72446 46.91185 27759 ft 418 kts 285°
2026-05-07 18:08 55.73240 46.86205 28149 ft 421 kts 285°
2026-05-07 18:08 55.74034 46.81196 28540 ft 423 kts 285°
2026-05-07 18:08 55.74832 46.76152 28900 ft 426 kts 285°
2026-05-07 18:08 55.75633 46.71084 29267 ft 428 kts 285°
2026-05-07 18:09 55.76439 46.65975 29592 ft 431 kts 285°
2026-05-07 18:09 55.77247 46.60834 29934 ft 434 kts 285°
2026-05-07 18:09 55.78058 46.55658 30235 ft 436 kts 285°
2026-05-07 18:09 55.78874 46.50452 30536 ft 438 kts 284°
2026-05-07 18:10 55.79454 46.45142 30880 ft 438 kts 276°
2026-05-07 18:10 55.79661 46.39744 31241 ft 438 kts 273°
2026-05-07 18:10 55.79833 46.34354 31691 ft 436 kts 273°
2026-05-07 18:10 55.80004 46.29063 32123 ft 434 kts 273°
2026-05-07 18:11 55.80180 46.23722 32559 ft 433 kts 273°
2026-05-07 18:11 55.80297 46.20180 32839 ft 432 kts 273°
2026-05-07 18:11 55.80531 46.13061 33412 ft 430 kts 273°
2026-05-07 18:11 55.80698 46.07754 33845 ft 429 kts 273°
2026-05-07 18:12 55.80862 46.02466 34223 ft 428 kts 273°
2026-05-07 18:12 55.81022 45.97186 34567 ft 428 kts 273°
2026-05-07 18:12 55.81174 45.91903 34898 ft 427 kts 273°
2026-05-07 18:12 55.81325 45.86632 35214 ft 427 kts 273°
2026-05-07 18:13 55.81476 45.81352 35517 ft 427 kts 273°
2026-05-07 18:13 55.81626 45.76151 35818 ft 427 kts 272°
2026-05-07 18:13 55.81775 45.70870 35935 ft 426 kts 272°
2026-05-07 18:14 55.82062 45.60382 35947 ft 424 kts 272°
2026-05-07 18:14 55.82341 45.49920 35947 ft 423 kts 272°
2026-05-07 18:15 55.82609 45.39533 35947 ft 423 kts 272°
2026-05-07 18:15 55.82875 45.29076 35944 ft 423 kts 272°
2026-05-07 18:16 55.83121 45.18613 35942 ft 423 kts 272°
2026-05-07 18:16 55.83350 45.08160 35940 ft 423 kts 272°
2026-05-07 18:17 55.83574 44.97706 35932 ft 423 kts 272°
2026-05-07 18:17 55.83812 44.87334 35927 ft 422 kts 272°
2026-05-07 18:18 55.84048 44.76885 35924 ft 423 kts 272°
2026-05-07 18:18 55.84271 44.66442 35917 ft 422 kts 272°
2026-05-07 18:19 55.84471 44.55992 35921 ft 423 kts 271°
2026-05-07 18:19 55.84656 44.45616 35920 ft 423 kts 272°
2026-05-07 18:20 55.84840 44.35157 35910 ft 423 kts 271°
2026-05-07 18:20 55.85022 44.24703 35922 ft 423 kts 271°
2026-05-07 18:21 55.85167 44.16013 35925 ft 422 kts 271°
2026-05-07 18:21 55.85325 44.05566 35915 ft 422 kts 271°
2026-05-07 18:22 55.85504 43.93426 35917 ft 422 kts 271°
2026-05-07 18:22 55.85654 43.82979 35917 ft 422 kts 271°
2026-05-07 18:23 55.85766 43.74293 35914 ft 422 kts 271°
2026-05-07 18:23 55.85892 43.63849 35915 ft 422 kts 271°
2026-05-07 18:24 55.86018 43.51720 35910 ft 422 kts 271°
2026-05-07 18:24 55.86135 43.41290 35912 ft 421 kts 271°
2026-05-07 18:25 55.86232 43.32630 35909 ft 421 kts 271°
2026-05-07 18:25 55.86327 43.22215 35901 ft 421 kts 271°
2026-05-07 18:26 55.86423 43.10115 35901 ft 421 kts 271°
2026-05-07 18:26 55.86493 43.01456 35902 ft 421 kts 271°
2026-05-07 18:27 55.86567 42.91036 35901 ft 421 kts 270°
2026-05-07 18:27 55.86623 42.80612 35902 ft 421 kts 270°
2026-05-07 18:28 55.86679 42.70181 35900 ft 421 kts 270°
2026-05-07 18:28 55.86733 42.59745 35905 ft 422 kts 270°
2026-05-07 18:29 55.86770 42.49376 35902 ft 422 kts 270°
2026-05-07 18:29 55.86796 42.38942 35896 ft 422 kts 270°
2026-05-07 18:30 55.86816 42.28505 35897 ft 422 kts 270°
2026-05-07 18:30 55.86827 42.18064 35899 ft 421 kts 270°
2026-05-07 18:31 55.86822 42.07699 35899 ft 421 kts 270°
2026-05-07 18:31 55.86815 41.97263 35898 ft 421 kts 270°
2026-05-07 18:32 55.86802 41.86838 35908 ft 421 kts 270°
2026-05-07 18:32 55.86760 41.76429 35908 ft 420 kts 269°
2026-05-07 18:33 55.86507 41.66106 35911 ft 420 kts 266°
2026-05-07 18:33 55.86134 41.55727 35899 ft 420 kts 266°
2026-05-07 18:34 55.85777 41.45343 35901 ft 421 kts 267°
2026-05-07 18:34 55.85452 41.34946 35904 ft 421 kts 267°
2026-05-07 18:35 55.85129 41.24544 35908 ft 421 kts 267°
2026-05-07 18:35 55.84786 41.14212 35686 ft 420 kts 267°
2026-05-07 18:35 55.84608 41.09032 35433 ft 419 kts 266°
2026-05-07 18:36 55.84428 41.03854 35183 ft 419 kts 266°
2026-05-07 18:36 55.84245 40.98679 34807 ft 419 kts 266°
2026-05-07 18:36 55.84062 40.93507 34425 ft 419 kts 266°
2026-05-07 18:36 55.83876 40.88337 34040 ft 419 kts 266°
2026-05-07 18:37 55.83688 40.83162 33600 ft 420 kts 267°
2026-05-07 18:37 55.83502 40.77975 33160 ft 421 kts 267°
2026-05-07 18:37 55.83314 40.72829 32732 ft 423 kts 266°
2026-05-07 18:37 55.83118 40.67608 32306 ft 424 kts 266°
2026-05-07 18:38 55.82921 40.62364 31878 ft 425 kts 266°
2026-05-07 18:38 55.82719 40.57122 31472 ft 424 kts 266°
2026-05-07 18:38 55.82511 40.51900 31064 ft 422 kts 266°
2026-05-07 18:38 55.82300 40.46706 30662 ft 420 kts 266°
2026-05-07 18:39 55.82085 40.41549 30268 ft 417 kts 266°
2026-05-07 18:39 55.81869 40.36415 29873 ft 414 kts 265°
2026-05-07 18:39 55.81656 40.31399 29422 ft 410 kts 265°
2026-05-07 18:39 55.81443 40.26357 28971 ft 407 kts 265°
2026-05-07 18:40 55.81232 40.21365 28542 ft 404 kts 265°
2026-05-07 18:40 55.81021 40.16399 28133 ft 401 kts 265°
2026-05-07 18:40 55.80810 40.11476 27730 ft 398 kts 265°
2026-05-07 18:40 55.80595 40.06579 27333 ft 396 kts 265°
2026-05-07 18:41 55.80376 40.01716 26918 ft 394 kts 265°
2026-05-07 18:41 55.80156 39.96870 26531 ft 391 kts 265°
2026-05-07 18:41 55.79940 39.92167 26154 ft 383 kts 265°
2026-05-07 18:41 55.79727 39.87496 25789 ft 376 kts 265°
2026-05-07 18:42 55.79519 39.82908 25490 ft 370 kts 265°
2026-05-07 18:42 55.79299 39.78384 25256 ft 367 kts 264°
2026-05-07 18:42 55.79030 39.73872 25012 ft 366 kts 263°
2026-05-07 18:42 55.78730 39.69401 24805 ft 363 kts 263°
2026-05-07 18:43 55.78415 39.64948 24806 ft 364 kts 263°
2026-05-07 18:43 55.78098 39.60488 24807 ft 364 kts 263°
2026-05-07 18:43 55.77786 39.56023 24707 ft 364 kts 263°
2026-05-07 18:43 55.77485 39.51647 24457 ft 360 kts 263°
2026-05-07 18:44 55.77181 39.47232 24245 ft 359 kts 263°
2026-05-07 18:44 55.76882 39.42842 24029 ft 357 kts 263°
2026-05-07 18:44 55.76582 39.38470 23834 ft 356 kts 263°
2026-05-07 18:44 55.76279 39.34116 23760 ft 356 kts 263°
2026-05-07 18:45 55.75974 39.29759 23664 ft 355 kts 263°
2026-05-07 18:45 55.75668 39.25402 23579 ft 356 kts 263°
2026-05-07 18:45 55.75360 39.21048 23490 ft 356 kts 263°
2026-05-07 18:45 55.75049 39.16694 23386 ft 355 kts 263°
2026-05-07 18:46 55.74744 39.12408 23289 ft 355 kts 263°
2026-05-07 18:46 55.74433 39.08073 23198 ft 354 kts 263°
2026-05-07 18:46 55.74119 39.03739 23104 ft 354 kts 263°
2026-05-07 18:46 55.73805 38.99416 23011 ft 353 kts 263°
2026-05-07 18:47 55.73498 38.95097 22916 ft 353 kts 264°
2026-05-07 18:47 55.73474 38.90754 22697 ft 353 kts 274°
2026-05-07 18:47 55.73688 38.86429 22294 ft 350 kts 274°
2026-05-07 18:47 55.73907 38.82140 21938 ft 348 kts 274°
2026-05-07 18:48 55.74122 38.77878 21596 ft 346 kts 274°
2026-05-07 18:48 55.74328 38.73701 21240 ft 343 kts 274°
2026-05-07 18:48 55.74534 38.69493 20893 ft 341 kts 274°
2026-05-07 18:48 55.74737 38.65313 20548 ft 339 kts 274°
2026-05-07 18:49 55.74960 38.61152 20205 ft 338 kts 277°
2026-05-07 18:49 55.75549 38.57123 19902 ft 338 kts 288°
2026-05-07 18:49 55.76608 38.53394 19872 ft 341 kts 300°
2026-05-07 18:49 55.77977 38.49926 19880 ft 343 kts 302°
2026-05-07 18:50 55.79352 38.46459 19875 ft 343 kts 302°
2026-05-07 18:50 55.80704 38.43033 19879 ft 343 kts 301°
2026-05-07 18:50 55.82072 38.39561 19879 ft 343 kts 301°
2026-05-07 18:50 55.83458 38.36092 19757 ft 345 kts 302°
2026-05-07 18:51 55.84886 38.32725 19562 ft 335 kts 304°
2026-05-07 18:51 55.86300 38.29509 19390 ft 325 kts 304°
2026-05-07 18:51 55.87690 38.26378 19018 ft 320 kts 304°
2026-05-07 18:51 55.89060 38.23277 18582 ft 317 kts 303°
2026-05-07 18:52 55.90412 38.20190 18181 ft 314 kts 303°
2026-05-07 18:52 55.91739 38.17134 17827 ft 310 kts 303°
2026-05-07 18:52 55.93033 38.14140 17532 ft 308 kts 303°
2026-05-07 18:52 55.94334 38.11119 17242 ft 307 kts 302°
2026-05-07 18:53 55.95629 38.08103 16953 ft 305 kts 302°
2026-05-07 18:53 55.96916 38.05104 16662 ft 304 kts 302°
2026-05-07 18:53 55.98198 38.02123 16374 ft 303 kts 302°
2026-05-07 18:53 55.99497 37.99169 16074 ft 303 kts 306°
2026-05-07 18:54 56.01068 37.96615 15794 ft 308 kts 319°
2026-05-07 18:54 56.02945 37.94705 15471 ft 313 kts 329°
2026-05-07 18:54 56.04884 37.93053 15151 ft 312 kts 328°
2026-05-07 18:54 56.06837 37.91374 14829 ft 311 kts 328°
2026-05-07 18:55 56.08780 37.89697 14517 ft 309 kts 328°
2026-05-07 18:55 56.10713 37.88023 14193 ft 307 kts 328°
2026-05-07 18:55 56.12632 37.86363 13877 ft 305 kts 328°
2026-05-07 18:55 56.14538 37.84710 13548 ft 304 kts 328°
2026-05-07 18:56 56.16434 37.83067 13220 ft 301 kts 328°
2026-05-07 18:56 56.18313 37.81441 12971 ft 296 kts 327°
2026-05-07 18:56 56.20128 37.79878 12836 ft 283 kts 327°
2026-05-07 18:56 56.21849 37.78390 12568 ft 276 kts 327°
2026-05-07 18:57 56.23570 37.76887 12187 ft 274 kts 326°
2026-05-07 18:57 56.25283 37.75387 11811 ft 274 kts 326°
2026-05-07 18:57 56.26987 37.73844 11428 ft 272 kts 321°
2026-05-07 18:57 56.28365 37.71654 11057 ft 260 kts 300°
2026-05-07 18:58 56.29202 37.68861 10694 ft 250 kts 282°
2026-05-07 18:58 56.29468 37.65839 10324 ft 242 kts 265°
2026-05-07 18:58 56.29220 37.62902 9966 ft 235 kts 251°
2026-05-07 18:58 56.28415 37.60431 9588 ft 230 kts 226°
2026-05-07 18:59 56.27062 37.58916 9195 ft 234 kts 202°
2026-05-07 18:59 56.25451 37.58618 8809 ft 239 kts 186°
2026-05-07 18:59 56.23802 37.58650 8423 ft 235 kts 186°
2026-05-07 18:59 56.22175 37.58685 8046 ft 233 kts 186°
2026-05-07 19:00 56.20558 37.58873 7669 ft 236 kts 174°
2026-05-07 19:00 56.19032 37.60123 7299 ft 250 kts 149°
2026-05-07 19:00 56.17765 37.62328 6930 ft 255 kts 141°
2026-05-07 19:00 56.16535 37.64609 6572 ft 254 kts 141°
2026-05-07 19:01 56.15307 37.66872 6206 ft 253 kts 140°
2026-05-07 19:01 56.14090 37.69100 5833 ft 253 kts 140°
2026-05-07 19:01 56.12865 37.71344 5450 ft 250 kts 140°
2026-05-07 19:01 56.11657 37.73564 5081 ft 247 kts 139°
2026-05-07 19:02 56.10471 37.75722 4809 ft 239 kts 141°
2026-05-07 19:02 56.09085 37.77076 4524 ft 220 kts 175°
2026-05-07 19:02 56.07632 37.76888 4254 ft 205 kts 201°
2026-05-07 19:02 56.06289 37.76118 3980 ft 201 kts 201°
2026-05-07 19:03 56.04985 37.75374 3708 ft 198 kts 201°
2026-05-07 19:03 56.03689 37.74635 3434 ft 193 kts 200°
2026-05-07 19:03 56.02520 37.73612 3159 ft 184 kts 220°
2026-05-07 19:03 56.01712 37.71896 2970 ft 180 kts 243°
2026-05-07 19:04 56.01304 37.69778 2947 ft 181 kts 255°
2026-05-07 19:04 56.00992 37.67616 2852 ft 179 kts 256°
2026-05-07 19:04 56.00680 37.65473 2778 ft 178 kts 255°
2026-05-07 19:04 56.00368 37.63335 2693 ft 178 kts 255°
2026-05-07 19:05 56.00063 37.61262 2486 ft 167 kts 255°
2026-05-07 19:05 55.99776 37.59307 2304 ft 160 kts 255°
2026-05-07 19:05 55.99499 37.57431 2110 ft 156 kts 255°
2026-05-07 19:05 55.99230 37.55606 1909 ft 150 kts 255°
2026-05-07 19:06 55.98966 37.53819 1714 ft 147 kts 254°
2026-05-07 19:06 55.98484 37.50549 1347 ft 132 kts 255°
2026-05-07 19:06 55.98252 37.48948 1096 ft 135 kts 253°
2026-05-07 19:07 55.98008 37.47332 979 ft 136 kts 255°
2026-05-07 19:07 55.97760 37.45691 809 ft 137 kts 256°
2026-05-07 19:07 55.97521 37.44051 675 ft 138 kts 254°
2026-05-07 19:07 55.97273 37.42493 640 ft 118 kts 255°
2026-05-07 19:08 55.97116 37.41373 640 ft 68 kts 256°
2026-05-07 19:08 55.97023 37.40717 642 ft 45 kts 256°
2026-05-07 19:08 55.96957 37.40244 641 ft 22 kts 256°
2026-05-07 19:08 55.96956 37.40072 641 ft 14 kts 308°
2026-05-07 19:09 55.97051 37.40014 642 ft 16 kts 345°
2026-05-07 19:09 55.97159 37.39962 641 ft 17 kts 346°
2026-05-07 19:09 55.97276 37.39906 638 ft 18 kts 345°
2026-05-07 19:09 55.97355 37.39991 639 ft 15 kts 72°
2026-05-07 19:10 55.97384 37.40173 639 ft 16 kts 75°
2026-05-07 19:10 55.97413 37.40368 639 ft 16 kts 75°
2026-05-07 19:10 55.97443 37.40571 641 ft 17 kts 74°
2026-05-07 19:10 55.97476 37.40782 646 ft 18 kts 75°
2026-05-07 19:11 55.97508 37.40998 644 ft 18 kts 75°
2026-05-07 19:11 55.97540 37.41222 641 ft 19 kts 75°
2026-05-07 19:11 55.97575 37.41454 644 ft 18 kts 75°
2026-05-07 19:11 55.97610 37.41596 642 ft 12 kts 35°
2026-05-07 19:12 55.97686 37.41622 646 ft 11 kts 49°
2026-05-07 19:12 55.97711 37.41763 642 ft 12 kts 75°
2026-05-07 19:12 55.97734 37.41914 644 ft 8 kts 75°
2026-05-07 19:12 55.97763 37.41979 639 ft 7 kts
2026-05-07 19:13 55.97794 37.41921 639 ft 4 kts 302°
2026-05-07 19:13 55.97806 37.41891 639 ft 1 kts 304°
2026-05-07 19:13 55.97807 37.41887 639 ft 0 kts 304°